Location: *
(42.5628°N, 2.3633°E)
Time: 09:06:08
(UTC+00:00)

Meteor 1-24 Rocket - Pass Details

Date: 30 March 2020
Orbit: 790 x 927 km, 81.3° (Epoch: 03 June)

Event Time Altitude Azimuth Distance (km) Brightness Sun altitude
Rises 19:16:38 0° 347° (NNW) 3,409 7.3 -12.0°
Reaches altitude 10° 19:19:05 10° 346° (NNW) 2,450 6.5 -12.4°
Maximum altitude 19:24:35 72° 263° (W) 857 3.9 -13.4°
Drops below altitude 10° 19:29:53 10° 180° (S) 2,365 5.8 -14.3°
Sets 19:32:13 0° 178° (S) 3,281 6.6 -14.7°
